Regional Weather Roundup
Issued by NWS

Home | Current Version | Previous Version | Text Only | Print | Product List | Glossary On
Versions: 1 2 3 4 5 6 7 8 9 10 11 12 13 14 15 16 17 18 19 20 21 22 23 24 25 26 27 28 29 30 31 32 33 34 35 36 37 38 39 40 41 42 43 44 45 46 47 48 49 50
000
ASUS43 KMPX 200801
RWRMN
WEATHER ROUNDUP FOR MINNESOTA
NATIONAL WEATHER SERVICE TWIN CITIES/CHANHASSEN MN
300 AM CDT SUN APR 20 2014


NOTE: "FAIR" INDICATES FEW OR NO CLOUDS BELOW 12,000 FEET WITH NO
SIGNIFICANT WEATHER AND/OR OBSTRUCTIONS TO VISIBILITY. N/A MEANS
CURRENT SKY AND/OR WEATHER CONDITIONS ARE NOT AVAILABLE.

MNZ060>063-068>070-200900-
   Twin Cities Metro

CITY           SKY/WX    TMP DP  RH WIND       PRES   REMARKS
TWIN CITIES    CLOUDY    48  48 100 S6        30.01F FOG
ST PAUL        FOG       51  51 100 SE6       30.02F VSB 1/4
CRYSTAL        CLOUDY    49  48  97 CALM      30.00F FOG
BLAINE         CLOUDY    52  52 100 CALM      30.01S FOG
EDEN PRAIRIE   LGT RAIN  53  51  93 CALM      30.00S FOG
LAKEVILLE      LGT RAIN  52  52 100 CALM      30.02F
SOUTH ST PAUL  FOG       56  54  94 CALM      30.01F VSB 1/2
LAKE ELMO      LGT RAIN  52  52 100 CALM      30.02F
$$
MNZ001>005-007-008-013>017-022>024-027-028-200900-
   Northwest Minnesota

CITY           SKY/WX    TMP DP  RH WIND       PRES   REMARKS
BEMIDJI        CLEAR     30  28  94 W3        30.01S
HALLOCK        CLOUDY    34  30  86 CALM      29.99F
ROSEAU         CLEAR     34  28  80 SW5       30.00S WCI  30
WARROAD        CLEAR     32  28  86 SW5       30.01R WCI  27
THIEF RVR FALL CLEAR     34  30  86 CALM      30.02S
CROOKSTON      CLEAR     36  32  87 CALM      30.03S
FOSSTON        CLEAR     30  27  86 CALM      30.03S
DETROIT LAKES  CLEAR     37  34  87 CALM      30.04R
MOORHEAD       CLEAR     41  39  93 E3        30.03S
PARK RAPIDS    CLEAR     35  32  88 CALM      30.02R
$$
MNZ006-009>011-018-025>026-200900-
   North Central Minnesota

CITY           SKY/WX    TMP DP  RH WIND       PRES   REMARKS
BAUDETTE       CLEAR     35  31  85 CALM      30.00R
FLAG ISLAND    CLEAR     36  30  80 W5        29.98R
INTL FALLS     CLEAR     37  33  85 W7        29.99R
WASKISH        CLEAR     34  32  93 W3        30.02R
BIG FORK       CLEAR     32  28  86 CALM      30.01S
LONGVILLE      FAIR      34  30  86 CALM      30.02R
GRAND RAPIDS   CLEAR     37  32  81 NW8       30.01R
CRANE LAKE     CLEAR     27  25  93 CALM      30.01R
ORR            CLEAR     37  34  87 NW3       29.98R
COOK           CLEAR     34  34 100 CALM      30.00R
$$
MNZ012-019>021-037-200900-
   Northeast Minnesota

CITY           SKY/WX    TMP DP  RH WIND       PRES   REMARKS
DULUTH         CLEAR     33  29  85 SW3       29.99S
ELY            CLEAR     32  30  93 SW3       29.99R
HIBBING        CLEAR     29  27  92 CALM      30.00R FOG
EVELETH        CLEAR     30  30 100 CALM      30.01R FOG
DULUTH HARBOR  CLEAR     28  28 100 CALM      30.03S FOG
TWO HARBORS    CLEAR     27  21  80 CALM      29.98F
SILVER BAY     CLEAR     25  25 100 CALM      29.99S
GRAND MARAIS     N/A     30  28  92 CALM      30.01S
G MARAIS ARPRT PTCLDY    37  34  87 SW5       29.98S
$$
MNZ029>031-032-039>041-046>048-054>057-064-200900-
   West Central Minnesota

CITY           SKY/WX    TMP DP  RH WIND       PRES   REMARKS
FERGUS FALLS   CLEAR     43  34  70 E6        30.00S
WHEATON        CLEAR     45  39  81 N3        30.04S
MORRIS         CLEAR     41  30  65 CALM      30.00R
ALEXANDRIA     CLEAR     45  32  60 N7        30.02R
ELBOW LAKE     FAIR      44  37  78 NE8       30.02R
WADENA         CLEAR     36  30  80 CALM      30.03R
GLENWOOD       CLEAR     45  36  70 N8        30.02R
APPLETON       CLEAR     37  34  87 S3        30.00R
BENSON         PTCLDY    34  32  93 CALM      30.01R
ORTONVILLE     CLEAR     43  34  70 NW10      30.01R
MADISON        CLEAR     41  34  75 W3        30.00S
WILLMAR        FAIR      39  37  93 CALM      30.02S FOG
$$
MNZ033>034-036-042>043-049>051-058-059-200900-
   Central Minnesota

CITY           SKY/WX    TMP DP  RH WIND       PRES   REMARKS
ST CLOUD       CLEAR     36  34  92 CALM      30.01R FOG
SAUK CENTRE    FAIR      39  35  84 NW9       30.03R
PAYNESVILLE    CLEAR     35  33  94 CALM      30.01F FOG
AITKIN         CLEAR     37  34  87 CALM      30.00R
PINE RIVER     CLEAR     32  28  86 CALM      30.05S
BRAINERD       CLEAR     44  31  60 N6        30.03R
STAPLES        CLEAR     36  32  87 N5        30.03R
LONG PRAIRIE   FAIR      39  34  81 CALM      30.02R
LITTLE FALLS   CLEAR     37  34  87 NW5       30.02R
LITCHFIELD     PTCLDY    43  43 100 CALM      30.01F FOG
BUFFALO        PTCLDY    41  38  92 CALM      30.02F FOG
MAPLE LAKE     FOG       37  37  99 CALM      30.02S VSB 3/4
$$
MNZ037-044-045-052-053-200900-
   East Central Minnesota

CITY           SKY/WX    TMP DP  RH WIND       PRES   REMARKS
PRINCETON      FOG       34  32  93 CALM      30.01F VSB<1/4
MORA           CLEAR     32  30  93 CALM      30.02S FOG
CAMBRIDGE      PTCLDY    36  30  80 CALM      30.00S HAZE
RUSH CITY      PTCLDY    34  32  94 CALM      30.02S
HINCKLEY       FAIR      32  32 100 CALM      30.01R FOG
CLOQUET        CLEAR     28  27  93 CALM      29.99S FOG
MCGREGOR       CLEAR     39  37  93 CALM      30.02R
$$
MNZ071>073-080-081-089-090-097-098-200900-
   Southwest Minnesota

CITY           SKY/WX    TMP DP  RH WIND       PRES   REMARKS
MONTEVIDEO     PTCLDY    43  36  75 CALM      30.01S
GRANITE FALLS  PTCLDY    38  35  89 S3        30.02S
CANBY          CLEAR     41  32  70 CALM      30.01S
MARSHALL       CLEAR     45  34  65 SW7       30.00S
REDWOOD FALLS  PTCLDY    51  46  83 CALM      30.00F
OLIVIA         CLEAR     43  39  87 CALM      30.00F
PIPESTONE      CLOUDY    52  39  62 E3        30.01S
WINDOM         MOCLDY    54  45  71 CALM      30.02S
WORTHINGTON    CLOUDY    52  41  66 E7        30.03F
JACKSON        CLOUDY    52  45  76 CALM      30.02S
TRACY          CLOUDY    55  42  61 S5        30.01F
SLAYTON        CLOUDY    51  43  75 CALM      30.02F
$$
MNZ065>067-074>077-082>085-091>093-200900-
   South Central Minnesota

CITY           SKY/WX    TMP DP  RH WIND       PRES   REMARKS
MANKATO        CLOUDY    54  46  76 NE6       30.02F
NEW ULM          N/A     55  48  76 E3        30.00F
ST JAMES       LGT RAIN  52  46  82 CALM      30.03S
FAIRMONT       CLOUDY    54  45  71 N3        30.03F
GLENCOE        CLOUDY    50  46  87 CALM      30.00F FOG
FARIBAULT      CLOUDY    57  52  82 CALM      30.03S HAZE
OWATONNA       CLOUDY    52  48  87 NW3       30.03R FOG
WASECA         CLOUDY    54  52  94 NE6       30.04S
ALBERT LEA     CLOUDY    61  46  59 CALM      30.02S
$$
MNZ078>079-086>088-094>096-200900-
   Southeast Minnesota

CITY           SKY/WX    TMP DP  RH WIND       PRES   REMARKS
ROCHESTER      CLOUDY    58  45  62 S14       30.03F
RED WING       CLOUDY    52  48  87 CALM      30.02R
STANTON        FOG       52  50  93 CALM      30.01S VSB 3/4
DODGE CENTER   CLOUDY    57  48  72 SW7       30.03S
WINONA           N/A    N/A N/A N/A MISG        N/A
AUSTIN         CLOUDY    59  45  58 S6        30.03S
PRESTON        CLOUDY    59  44  58 S12G17    30.05S
$$
ABBREVIATIONS USED IN REMARKS
   TC - TEMPERATURES IN CELSIUS
  WCI - WIND CHILL INDEX
   HX - HEAT INDEX
  VSB - VISIBILITY
$$


USA.gov is the U.S. government's official web portal to all federal, state and local government web resources and services.